{"data":{"norad_id":67981,"intl_designator":"2026-038W","name":"STARLINK-36874","alt_names":[],"object_type":"PAYLOAD","status":"ACTIVE","operator":null,"country":"US","launch_date":"2026-02-25","launch_site_code":"AFWTR","launch_vehicle":null,"mission":null,"orbit_class":"UNKNOWN","rcs_meters":null,"size_class":null,"mass_kg":null,"dimensions":null,"purposes":["comms"],"wikipedia_slug":null,"has_3d_model":false,"image_url":null,"decayed_at":null,"tle_current":{"epoch":"2026-05-25T00:53:56.473152Z","epoch_age_seconds":68341,"freshness":"FRESH","line1":"1 67981U 26038W   26145.03745918  .00019496  00000+0  60465-3 0  9997","line2":"2 67981  97.2839 155.1273 0001132 103.0848 257.0521 15.33444920 14941","mean_motion":15.3344492,"eccentricity":0.0001132,"inclination_deg":97.2839,"raan_deg":155.1273,"arg_perigee_deg":103.0848,"mean_anomaly_deg":257.0521,"bstar":0.00060465,"rev_number":1494,"period_min":93.906209555932,"perigee_km":464.76870787916,"apogee_km":466.31811712455,"semimajor_km":6843.6804125019,"source":"CELESTRAK","updated_at":"2026-05-25T13:38:21.777292Z"}}}